Location: Dittelbrunn
(50.0738°N, 10.2196°E)
Time: 13:35:21
(UTC+00:00)

Cosmos 1603 - Pass Details

Date: 18 September 2020
Orbit: 832 x 858 km, 71.0° (Epoch: 25 October)

Event Time Altitude Azimuth Distance (km) Brightness Sun altitude
Rises 18:21:12 0° 328° (NNW) 3,422 7.6 -9.7°
Reaches altitude 10° 18:23:43 10° 324° (NW) 2,479 7.0 -10.1°
Maximum altitude 18:29:13 53° 249° (WSW) 1,027 4.5 -10.9°
Drops below altitude 10° 18:34:39 10° 173° (S) 2,446 5.9 -11.8°
Sets 18:37:07 0° 169° (S) 3,373 6.5 -12.2°
